チュリュモフ-ゲラシメンコ彗星

67P/Churyumov-Gerasimenko (2021)

English version
Home page
Updated on April 15, 2023

---------------------------------------------------------------------

・ プロフィール

・ 写真集

・ 軌道要素

Epoch 2022 Jan. 21.0 TT = JDT 2459600.5
T 2021 Nov. 2.06609 TT                                  Rudenko
q   1.2106354            (2000.0)            P               Q
n   0.15341014     Peri.   22.13757     +0.52344268     -0.85112124
a   3.4559439      Node    36.33322     +0.77128087     +0.45334097
e   0.6496947      Incl.    3.87162     +0.36212371     +0.26471607
P   6.42
From 9548 observations 1995 July 3-2022 Feb. 2, mean residual 0".8.
     Nongravitational parameters A1 = +0.08, A2 = +0.0111.

・ 星図

・ 光度変化

        m1 = 9.5 + 5 logΔ + 14.0 log r(t - 40)

---------------------------------------------------------------------

軌道要素はM.P.E.C. 2022-C56に掲載されたものです。
星図はステラナビゲータ Ver.10 (アストロアーツ) で作成したものです。
光度グラフはComet for Windowsで作成したものです。

---------------------------------------------------------------------

Copyright(C) Seiichi Yoshida (comet@aerith.net). All rights reserved.